Regional Weather Roundup
Issued by NWS Sioux Falls, SD

Home | Current Version | Previous Version | Graphics & Text | Print | Product List | Glossary Off
Versions: 1 2 3 4 5 6 7 8 9 10 11 12 13 14 15 16 17 18 19 20 21 22 23 24 25 26 27 28 29 30 31 32 33 34 35 36 37 38 39 40 41 42 43 44 45 46 47 48 49 50

000
ASUS43 KFSD 231502
RWRFSD

WEATHER ROUNDUP FOR SE SOUTH DAKOTA/SW MINNESOTA/NW IOWA
NATIONAL WEATHER SERVICE SIOUX FALLS SD
900 AM CST FRI FEB 23 2018

NOTE: "FAIR" INDICATES FEW OR NO CLOUDS BELOW 12,000 FEET WITH NO
SIGNIFICANT WEATHER AND OR OBSTRUCTIONS TO VISIBILITY.


SDZ038>040-050-052>070-231600-
SOUTHEAST SOUTH DAKOTA

CITY           SKY/WX    TMP DP  RH WIND       PRES   REMARKS
BROOKINGS      CLOUDY    21  18  88 NW12      30.17R WCI   9
CHAMBERLAIN    CLOUDY     7   4  89 W15       30.26R WCI -11
HURON          CLOUDY    11   8  88 NW10      30.25R WCI  -3
MADISON        CLOUDY    16  16 100 W9        30.18R WCI   4
MITCHELL       SUNNY     12  10  92 W13       30.26R WCI  -3
SIOUX FALLS    CLOUDY    18  16  92 NW9       30.20S FOG     WCI   7
WINNER         FAIR       8   1  73 W12       30.25R WCI  -7
YANKTON        CLOUDY    15  13  91 W8        30.26R WCI   4
$$

MNZ071-072-080-081-089-090-097-098-231600-
SOUTHWEST MINNESOTA

CITY           SKY/WX    TMP DP  RH WIND       PRES   REMARKS
FAIRMONT       FLURRIES  20  16  84 W16       30.18R WCI   6
JACKSON        PTSUNNY   21  18  86 W15       30.16R WCI   8
LUVERNE        CLOUDY    18  14  86 NW10      30.19R WCI   6
MARSHALL       SUNNY     18  14  84 NW12      30.17R WCI   5
MONTEVIDEO     CLOUDY    19  19 100 N7        30.17R FOG     WCI  10
PIPESTONE      PTSUNNY   18  16  93 NW7       30.15S FOG     WCI   8
REDWOOD FALLS  MOSUNNY   15  13  91 W13       30.17R FOG     WCI   1
TRACY          SUNNY     22  18  87 NW9       30.15S WCI  11
WORTHINGTON    CLOUDY    20  17  88 NW14      30.17R WCI   7
$$

IAZ001>003-012>014-020>022-031-032-NEZ013-014-SDZ071-231600-
NORTHWEST IOWA

CITY           SKY/WX    TMP DP  RH WIND       PRES   REMARKS
CHEROKEE       CLOUDY    19  19  99 NW3       30.24R
DENISON        CLOUDY    21  19  93 W9        30.24F FOG     WCI  11
ESTHERVILLE    PTSUNNY   18  15  88 W16       30.18R WCI   3
LE MARS        LGT SNOW  19  18  93 NW10G17   30.25R WCI   8
ORANGE CITY    CLOUDY    19  18  93 NW12      30.21R FOG     WCI   7
SHELDON        CLOUDY    19  19 100 NW9       30.19R WCI   9
SIOUX CITY     CLOUDY    17  15  92 NW14      30.27R FOG     WCI   3
SPENCER        CLOUDY    21  17  84 NW12      30.20R WCI   9
STORM LAKE     FOG       19  19 100 W13       30.21R VSB 1/2 WCI   7
$$

ABBREVIATIONS USED IN REMARKS
   TC - TEMPERATURE IN CELSIUS
  WCI - WIND CHILL INDEX
   HX - HEAT INDEX
  VSB - VISIBILITY





USA.gov is the U.S. government's official web portal to all federal, state and local government web resources and services.